{"data":{"norad_id":48045,"intl_designator":"2021-025D","name":"ONEWEB-0154","alt_names":[],"object_type":"PAYLOAD","status":"ACTIVE","operator":null,"country":"UK","launch_date":"2021-03-25","launch_site_code":"VOSTO","launch_vehicle":null,"mission":null,"orbit_class":"UNKNOWN","rcs_meters":null,"size_class":null,"mass_kg":null,"dimensions":null,"purposes":["comms"],"wikipedia_slug":null,"has_3d_model":false,"image_url":null,"decayed_at":null,"tle_current":{"epoch":"2026-05-25T00:08:26.666880Z","epoch_age_seconds":77681,"freshness":"FRESH","line1":"1 48045U 21025D   26145.00586420 -.00000074  00000+0 -23877-3 0  9996","line2":"2 48045  87.8941 324.8388 0001725  89.5849 270.5478 13.13469584250468","mean_motion":13.13469584,"eccentricity":0.0001725,"inclination_deg":87.8941,"raan_deg":324.8388,"arg_perigee_deg":89.5849,"mean_anomaly_deg":270.5478,"bstar":-0.00023877,"rev_number":25046,"period_min":109.63329623627,"perigee_km":1208.4580886121,"apogee_km":1211.0759154928,"semimajor_km":7587.9040020524,"source":"CELESTRAK","updated_at":"2026-05-25T13:38:22.388028Z"}}}